Location: Cuguron
(43.0994°N, 0.5363°E)
Time: 11:18:54
(UTC+00:00)

Helios 1A - Pass Details

Date: 15 May 2026
Orbit: 540 x 559 km, 98.2° (Epoch: 8 June)

Event Time Altitude Azimuth Distance (km) Brightness Sun altitude
Rises 22:13:00 0° 16° (NNE) 2,711 7.1 -23.6°
Reaches altitude 10° 22:15:09 10° 19° (NNE) 1,812 6.0 -23.8°
Enters shadow 22:18:08 48° 44° (NE) 719 3.4 -24.0°
